• In Hungary
  • List of Countries
  • For 7 days
  • Water Temperature
  • Satellite Maps
  • Weather Map
  • News
  • Weather Widgets
  • user-avatar
    Login

    Hourly Weather Verhnyaya Uratma

    Today, 22 September, Saturday

    Time Temperature Precipitation Wind Pressure Humidity
    00:00 +10°C° 0 mm 1 mps 748 mmHg 93%
    01:00 +10°C° 0 mm 1 mps 748 mmHg 94%
    02:00 +10°C° 0 mm 1 mps 748 mmHg 94%
    03:00 +10°C° 0 mm 1 mps 748 mmHg 95%
    04:00 +11°C° 0 mm 1 mps 748 mmHg 95%
    05:00 +10°C° 0 mm 2 mps 749 mmHg 96%
    06:00 +10°C° 0 mm 2 mps 749 mmHg 96%
    07:00 +12°C° 0 mm 3 mps 749 mmHg 93%
    08:00 +13°C° 0 mm 3 mps 749 mmHg 90%
    09:00 +16°C° 0 mm 3 mps 749 mmHg 87%
    10:00 +17°C° 0 mm 4 mps 749 mmHg 84%
    11:00 +18°C° 0 mm 4 mps 749 mmHg 81%
    12:00 +20°C° 0 mm 4 mps 749 mmHg 77%
    13:00 +20°C° 0.1 mm 4 mps 749 mmHg 77%
    14:00 +20°C° 0.1 mm 4 mps 748 mmHg 77%
    15:00 +21°C° 0.1 mm 4 mps 748 mmHg 77%
    16:00 +20°C° 0.2 mm 4 mps 748 mmHg 82%
    17:00 +18°C° 0.2 mm 3 mps 748 mmHg 86%
    18:00 +17°C° 0.2 mm 3 mps 748 mmHg 91%
    19:00 +17°C° 0.1 mm 3 mps 748 mmHg 92%
    20:00 +16°C° 0.1 mm 2 mps 748 mmHg 92%
    21:00 +16°C° 0.1 mm 2 mps 748 mmHg 93%
    22:00 +16°C° 0 mm 2 mps 748 mmHg 93%
    23:00 +15°C° 0 mm 2 mps 748 mmHg 92%

    Tomorrow, 23 September, Sunday

    Time Temperature Precipitation Wind Pressure Humidity
    00:00 +15°C° 0 mm 2 mps 748 mmHg 92%
    01:00 +15°C° 0 mm 2 mps 748 mmHg 92%
    02:00 +15°C° 0 mm 2 mps 748 mmHg 92%
    03:00 +14°C° 0 mm 1 mps 749 mmHg 92%
    04:00 +14°C° 0 mm 2 mps 749 mmHg 93%
    05:00 +14°C° 0 mm 2 mps 749 mmHg 93%
    06:00 +14°C° 0 mm 2 mps 748 mmHg 93%
    07:00 +16°C° 0 mm 2 mps 748 mmHg 88%
    08:00 +17°C° 0 mm 2 mps 748 mmHg 83%
    09:00 +19°C° 0 mm 3 mps 748 mmHg 78%
    10:00 +20°C° 0 mm 3 mps 748 mmHg 74%
    11:00 +21°C° 0 mm 3 mps 748 mmHg 69%
    12:00 +22°C° 0 mm 4 mps 748 mmHg 65%
    13:00 +23°C° 0 mm 4 mps 747 mmHg 65%
    14:00 +23°C° 0 mm 4 mps 747 mmHg 65%
    15:00 +23°C° 0 mm 4 mps 747 mmHg 65%
    16:00 +21°C° 0 mm 4 mps 747 mmHg 71%
    17:00 +20°C° 0 mm 3 mps 746 mmHg 77%
    18:00 +18°C° 0 mm 3 mps 746 mmHg 83%
    19:00 +18°C° 0 mm 3 mps 746 mmHg 85%
    20:00 +17°C° 0 mm 3 mps 746 mmHg 86%
    21:00 +17°C° 0 mm 3 mps 746 mmHg 87%
    22:00 +16°C° 0 mm 3 mps 745 mmHg 86%
    23:00 +15°C° 0 mm 4 mps 745 mmHg 85%

    Day after tomorrow, 24 September, Monday

    Time Temperature Precipitation Wind Pressure Humidity
    00:00 +15°C° 0 mm 4 mps 745 mmHg 84%
    01:00 +14°C° 0 mm 4 mps 744 mmHg 81%
    02:00 +14°C° 0 mm 4 mps 744 mmHg 79%
    03:00 +14°C° 0 mm 4 mps 744 mmHg 76%
    04:00 +13°C° 0 mm 4 mps 743 mmHg 71%
    05:00 +13°C° 0 mm 4 mps 743 mmHg 67%
    06:00 +12°C° 0 mm 5 mps 743 mmHg 62%
    07:00 +14°C° 0 mm 5 mps 743 mmHg 57%
    08:00 +15°C° 0 mm 6 mps 743 mmHg 53%
    09:00 +17°C° 0 mm 7 mps 743 mmHg 48%
    10:00 +18°C° 0 mm 7 mps 743 mmHg 47%
    11:00 +20°C° 0 mm 7 mps 742 mmHg 46%
    12:00 +21°C° 0 mm 7 mps 742 mmHg 44%
    13:00 +20°C° 0 mm 6 mps 742 mmHg 48%
    14:00 +20°C° 0 mm 5 mps 743 mmHg 52%
    15:00 +19°C° 0 mm 4 mps 743 mmHg 56%
    16:00 +17°C° 0.1 mm 3 mps 743 mmHg 63%
    17:00 +16°C° 0.1 mm 3 mps 743 mmHg 70%
    18:00 +14°C° 0.1 mm 2 mps 743 mmHg 77%
    19:00 +13°C° 0 mm 2 mps 743 mmHg 81%
    20:00 +12°C° 0 mm 2 mps 743 mmHg 85%
    21:00 +10°C° 0 mm 2 mps 743 mmHg 90%
    22:00 +10°C° 0 mm 2 mps 743 mmHg 92%
    23:00 +10°C° 0 mm 1 mps 743 mmHg 94%

    25 September, Tuesday

    Time Temperature Precipitation Wind Pressure Humidity
    00:00 +9°C° 0 mm 1 mps 743 mmHg 95%
    01:00 +9°C° 0 mm 1 mps 743 mmHg 96%
    02:00 +9°C° 0 mm 1 mps 742 mmHg 96%
    03:00 +9°C° 0 mm 1 mps 742 mmHg 96%
    04:00 +9°C° 0 mm 1 mps 742 mmHg 95%
    05:00 +9°C° 0 mm 1 mps 742 mmHg 94%
    06:00 +9°C° 0 mm 1 mps 742 mmHg 93%
    07:00 +8°C° 0 mm 2 mps 742 mmHg 90%
    08:00 +9°C° 0 mm 3 mps 741 mmHg 87%
    09:00 +10°C° 0 mm 3 mps 741 mmHg 83%
    10:00 +10°C° 0.2 mm 4 mps 741 mmHg 81%
    11:00 +11°C° 0.2 mm 4 mps 741 mmHg 79%
    12:00 +11°C° 0.2 mm 4 mps 741 mmHg 77%
    13:00 +10°C° 0.3 mm 5 mps 741 mmHg 77%
    14:00 +10°C° 0.3 mm 6 mps 740 mmHg 77%
    15:00 +10°C° 0.3 mm 7 mps 740 mmHg 77%
    16:00 +10°C° 0.3 mm 7 mps 740 mmHg 79%
    17:00 +10°C° 0.3 mm 7 mps 740 mmHg 82%
    18:00 +10°C° 0.3 mm 7 mps 740 mmHg 84%
    19:00 +10°C° 0.3 mm 7 mps 739 mmHg 85%
    20:00 +10°C° 0.3 mm 6 mps 739 mmHg 86%
    21:00 +10°C° 0.3 mm 6 mps 739 mmHg 87%
    22:00 +9°C° 0 mm 6 mps 739 mmHg 87%
    23:00 +9°C° 0 mm 5 mps 739 mmHg 88%

    26 September, Wednesday

    Time Temperature Precipitation Wind Pressure Humidity
    00:00 +8°C° 0 mm 5 mps 739 mmHg 88%
    01:00 +8°C° 0 mm 5 mps 739 mmHg 87%
    02:00 +7°C° 0 mm 5 mps 739 mmHg 85%
    03:00 +7°C° 0 mm 6 mps 739 mmHg 84%
    04:00 +5°C° 0 mm 6 mps 739 mmHg 84%
    05:00 +5°C° 0 mm 6 mps 739 mmHg 84%
    06:00 +5°C° 0 mm 7 mps 740 mmHg 85%
    07:00 +5°C° 0 mm 7 mps 740 mmHg 82%
    08:00 +6°C° 0 mm 8 mps 740 mmHg 79%
    09:00 +7°C° 0 mm 9 mps 740 mmHg 76%
    10:00 +7°C° 0 mm 8 mps 741 mmHg 76%
    11:00 +7°C° 0 mm 8 mps 741 mmHg 75%
    12:00 +7°C° 0 mm 8 mps 742 mmHg 75%
    13:00 +8°C° 0.1 mm 7 mps 742 mmHg 75%
    14:00 +8°C° 0.1 mm 7 mps 743 mmHg 76%
    15:00 +8°C° 0.1 mm 7 mps 743 mmHg 76%
    16:00 +8°C° 0.1 mm 6 mps 743 mmHg 77%
    17:00 +7°C° 0.1 mm 5 mps 744 mmHg 79%
    18:00 +6°C° 0.1 mm 5 mps 744 mmHg 81%
    19:00 +6°C° 0.1 mm 5 mps 745 mmHg 82%
    20:00 +6°C° 0.1 mm 4 mps 745 mmHg 82%
    21:00 +5°C° 0.1 mm 4 mps 745 mmHg 83%
    22:00 +4°C° 0 mm 4 mps 745 mmHg 83%
    23:00 +4°C° 0 mm 4 mps 745 mmHg 83%

    27 September, Thursday

    Time Temperature Precipitation Wind Pressure Humidity
    00:00 +3°C° 0 mm 4 mps 745 mmHg 84%
    01:00 +3°C° 0 mm 4 mps 744 mmHg 83%
    02:00 +3°C° 0 mm 4 mps 744 mmHg 82%
    03:00 +1°C° 0 mm 5 mps 744 mmHg 82%
    04:00 +2°C° 0.4 mm 6 mps 743 mmHg 80%
    05:00 +2°C° 0.4 mm 7 mps 743 mmHg 79%
    06:00 +1°C° 0.4 mm 8 mps 742 mmHg 77%
    07:00 +2°C° 0.1 mm 8 mps 742 mmHg 77%
    08:00 +4°C° 0.1 mm 8 mps 742 mmHg 77%
    09:00 +5°C° 0.1 mm 8 mps 742 mmHg 77%
    10:00 +5°C° 0 mm 8 mps 742 mmHg 77%
    11:00 +6°C° 0 mm 8 mps 741 mmHg 77%
    12:00 +6°C° 0 mm 8 mps 741 mmHg 76%
    13:00 +6°C° 0.1 mm 8 mps 741 mmHg 76%
    14:00 +7°C° 0.1 mm 8 mps 740 mmHg 77%
    15:00 +7°C° 0.1 mm 8 mps 740 mmHg 77%
    16:00 +6°C° 0.3 mm 8 mps 740 mmHg 79%
    17:00 +6°C° 0.3 mm 8 mps 739 mmHg 82%
    18:00 +6°C° 0.3 mm 8 mps 739 mmHg 84%
    19:00 +6°C° 0.3 mm 8 mps 739 mmHg 84%
    20:00 +5°C° 0.3 mm 8 mps 738 mmHg 84%
    21:00 +5°C° 0.3 mm 9 mps 738 mmHg 84%
    22:00 +5°C° 0.4 mm 9 mps 738 mmHg 85%
    23:00 +6°C° 0.4 mm 9 mps 738 mmHg 86%
    Show more